Regional Weather Roundup
Issued by NWS

Home | Current Version | Previous Version | Graphics & Text | Print | Product List | Glossary On
Versions: 1 2 3 4 5 6 7 8 9 10 11 12 13 14 15 16 17 18 19 20 21 22 23 24 25 26 27 28 29 30 31 32 33 34 35 36 37 38 39 40 41 42 43 44 45 46 47 48 49 50
938
ASUS45 KCYS 210810
RWRWY

WYOMING REGIONAL WEATHER ROUNDUP
NATIONAL WEATHER SERVICE CHEYENNE WY
200 AM MDT FRI JUL 21 2017

NOTE:  "FAIR" INDICATES FEW OR NO CLOUDS BELOW 12,000 FEET
WITH NO SIGNIFICANT WEATHER AND/OR OBSTRUCTIONS TO VISIBILITY.

WYZ001-210900-
YELLOWSTONE NATIONAL PARK

CITY           SKY/WX    TMP DP  RH WIND       PRES   REMARKS
LK YELLOWSTONE   N/A     43  43 100 W3        30.27S
W YELLOWSTONE  NOT AVBL

$$
WYZ002>013-054>058-071-098>099-210900-
NORTHERN WYOMING

CITY           SKY/WX    TMP DP  RH WIND       PRES   REMARKS
JACKSON        MOCLDY    52  50  93 CALM      30.19S VSB 1/2
CODY           FAIR      61  54  77 VRB3      30.04R
GREYBULL       FAIR      63  58  83 CALM      29.96R
WORLAND        FAIR      62  57  83 SE8       29.97S
SHERIDAN       FAIR      64  53  67 CALM      29.88F
BUFFALO        FAIR      65  51  60 CALM      29.97F
GILLETTE       FAIR      68  59  73 S16       29.95F
HULETT         FAIR      64  57  77 SW6       29.94F
NEWCASTLE      FAIR      64  59  82 S7        29.97R

$$
WYZ014>020-022>026-101>103-210900-
CENTRAL WYOMING

CITY           SKY/WX    TMP DP  RH WIND       PRES   REMARKS
BIG PINEY      MOCLDY    54  53  97 CALM      30.27R
PINEDALE       CLOUDY    55  54  94 E3        30.28R
DUBOIS         FAIR      52  46  82 W9        30.23R
LANDER         FAIR      59  56  89 CALM      30.11F
RIVERTON       FAIR      61  58  90 E6        30.11R
CASPER         FAIR      68  54  60 SW15      30.07F
DOUGLAS        FAIR      64  59  83 S5        30.06F

$$
WYZ021-027>030-104>119-210900-
SOUTHERN WYOMING

CITY           SKY/WX    TMP DP  RH WIND       PRES   REMARKS
EVANSTON       FAIR      67  50  54 CALM      30.24F
KEMMERER         N/A    N/A N/A N/A N5        30.26F
FORT BRIDGER   PTSUNNY   65  51  61 NW3       30.27F
ROCK SPRINGS   MOCLDY    61  53  75 VRB7      30.24S
RAWLINS        LGT RAIN  60  56  86 S5        30.26F
SARATOGA       FAIR      55  55 100 W9        30.31S
LARAMIE        FAIR      56  52  86 NW6       30.29S
CHEYENNE       FAIR      64  55  72 W9        30.19R
TORRINGTON     FAIR      68  60  75 SW7       30.01S
PINE BLUFFS    FAIR      64  54  68 N8        30.12S

$$




USA.gov is the U.S. government's official web portal to all federal, state and local government web resources and services.